Lapse_Rate
4.5 4.8 4.9 4.9 5.0 5.0 5.2 5.5 5.6 5.5 5.8 5.8 5.8 6.0 6.2 6.4 6.5 6.4 6.4 6.3 6.3 6.4 6.5 6.2 5.9 5.8 5.6 5.5 5.5 5.3 4.6 4.5 4.7 5.3 6.4 7.7 7.0 7.6 6.6 6.3 6.3 6.6 7.1 7.5 7.7
4.3 4.6 4.6 4.7 4.6 4.7 4.8 5.2 5.5 5.6 5.6 5.8 5.8 6.0 6.0 6.1 6.4 6.4 6.5 6.6 6.6 6.6 6.6 6.4 6.1 5.6 5.6 5.6 5.4 5.1 5.1 4.9 5.5 6.0 5.9 6.2 6.7 7.4 6.3 6.3 6.7 6.8 7.2 7.5 7.5
3.8 4.3 4.6 4.6 4.6 4.6 4.8 5.1 5.4 5.6 5.6 5.6 5.8 5.9 6.0 5.9 6.4 6.3 6.6 6.7 6.7 6.5 6.3 6.2 6.1 5.6 5.5 5.5 5.4 5.4 5.0 5.2 5.3 5.7 5.4 5.8 6.6 7.3 6.3 6.4 7.3 7.3 7.3 7.2 7.4
4.0 4.1 4.3 4.5 4.6 4.8 5.0 5.4 5.5 5.8 5.6 5.7 5.9 6.0 6.0 5.7 6.1 5.8 6.1 6.5 6.3 5.9 5.9 5.9 5.9 5.7 5.6 5.5 5.8 5.0 5.2 5.3 5.3 5.7 5.2 5.6 5.9 6.4 6.4 6.5 7.9 7.4 7.4 7.7 7.8
4.2 4.3 4.4 4.6 4.7 4.6 5.0 5.4 5.7 5.7 5.7 5.7 6.0 6.0 6.1 6.2 6.6 5.2 6.2 6.4 6.3 6.2 5.8 5.8 6.2 5.7 5.5 5.8 5.9 5.5 5.7 5.5 5.3 5.4 5.3 5.5 5.6 6.3 6.3 6.8 8.1 7.6 7.6 7.9 8.0
4.3 4.3 4.4 4.5 4.5 4.7 5.1 5.4 5.5 5.6 5.8 5.9 5.8 5.9 6.0 6.6 6.4 6.1 6.2 6.6 6.6 6.4 6.1 5.9 6.0 5.5 5.3 5.8 6.1 6.4 5.5 5.3 5.5 5.5 5.8 5.5 5.7 5.0 6.6 7.6 7.7 7.9 8.1 8.0 8.2
4.4 4.5 4.6 4.7 4.6 4.9 5.3 5.5 5.5 5.4 5.7 5.7 5.6 6.0 6.2 6.8 6.1 6.4 6.8 6.8 6.7 6.6 6.5 6.1 5.8 5.6 5.4 5.7 5.4 5.6 5.8 5.6 5.8 5.9 5.5 6.2 5.3 5.6 6.6 7.6 7.6 8.3 8.3 8.4 8.3
4.6 4.6 4.7 4.7 4.7 5.1 5.5 5.8 5.5 5.6 5.6 5.6 5.8 5.9 6.4 6.5 6.4 6.3 6.7 7.1 7.5 7.1 6.7 5.9 5.5 5.5 5.3 5.3 5.3 5.1 5.0 5.0 5.5 5.8 5.9 5.5 4.8 6.4 6.7 7.2 7.5 8.4 8.4 8.4 8.4
4.6 4.6 4.6 4.8 5.1 5.3 5.5 5.7 5.7 5.6 5.8 5.8 5.9 6.0 6.7 6.5 6.6 6.8 7.1 7.1 7.2 7.7 7.0 5.9 5.5 5.3 5.3 5.1 5.0 5.0 4.8 5.1 5.0 5.6 5.2 4.9 4.9 5.5 6.4 6.5 7.3 7.9 8.1 8.3 8.3
4.9 4.9 5.0 5.2 5.4 5.5 5.6 5.6 5.8 5.9 6.1 6.2 6.3 6.4 6.4 6.3 6.5 6.3 7.0 6.9 6.7 7.0 6.8 6.3 5.5 5.3 5.7 5.4 4.5 5.1 4.6 4.4 4.3 4.9 5.2 5.1 5.0 5.3 5.9 6.6 7.1 7.5 8.1 8.3 8.2
5.2 5.3 5.4 5.3 5.4 5.5 5.8 6.0 5.9 5.8 6.1 6.1 6.1 6.3 6.4 6.2 6.5 6.2 6.3 7.1 7.0 6.6 6.3 6.0 5.6 6.0 6.7 5.7 5.0 4.6 4.5 4.2 4.4 4.8 4.6 5.3 5.3 5.3 5.6 6.7 6.9 7.3 7.9 8.0 8.3
5.6 5.7 5.8 5.6 5.7 5.6 5.7 6.0 5.9 5.6 6.3 6.6 6.7 6.4 7.2 6.8 6.5 6.6 6.7 6.7 6.7 6.5 6.3 5.9 5.8 6.3 5.5 5.1 5.0 4.6 4.1 4.0 4.3 4.8 4.8 5.1 5.0 5.1 5.8 6.8 7.2 7.5 7.8 8.0 8.3
6.1 6.2 6.1 6.0 6.0 5.9 5.8 5.8 5.8 5.7 5.0 6.8 7.6 7.2 7.1 7.4 7.2 8.3 7.0 6.6 6.4 6.0 6.2 6.0 6.0 6.1 5.5 5.2 5.1 4.6 4.2 4.5 4.3 4.6 5.2 4.9 4.7 5.3 6.3 6.9 7.0 7.5 7.9 8.0 8.2
6.6 6.8 6.7 6.7 6.4 6.4 6.1 5.9 5.9 5.8 5.6 6.5 6.7 6.5 6.7 6.7 6.9 7.3 7.6 6.6 6.8 6.7 6.8 6.0 6.0 5.8 5.5 5.6 5.1 4.5 5.1 4.6 4.4 4.5 4.5 5.2 4.4 5.4 6.3 6.9 7.3 7.7 8.1 8.0 8.4
7.1 6.9 6.9 6.8 6.6 6.5 6.3 6.0 5.7 5.7 5.1 6.7 6.3 6.2 6.2 6.3 6.1 6.8 7.3 6.5 6.6 6.9 6.7 6.3 6.1 5.8 5.8 6.1 5.2 4.8 4.8 4.7 4.5 4.7 4.4 4.6 5.7 5.3 6.7 6.9 7.5 8.0 8.2 8.2 8.6
6.8 7.0 7.0 6.9 7.0 6.9 6.3 6.0 5.8 5.9 5.2 7.0 6.1 6.0 6.2 6.2 6.1 6.1 6.8 6.9 6.9 6.6 6.1 6.1 6.1 5.9 6.0 5.7 5.6 5.2 5.0 5.0 4.8 4.6 4.0 5.3 5.9 5.6 7.0 7.7 8.4 8.4 8.2 8.4 8.7
7.0 6.9 7.0 6.9 6.7 6.5 6.3 5.9 5.7 5.4 6.6 6.2 6.4 6.4 6.9 6.9 6.7 6.5 6.6 6.8 6.9 6.4 6.1 6.2 6.2 6.3 6.0 5.8 5.8 5.4 5.1 5.1 5.0 4.8 4.9 6.3 5.8 6.7 7.3 7.7 7.8 8.0 8.2 8.6 8.5
7.1 6.9 6.8 6.7 6.2 5.9 5.9 5.5 5.4 5.9 6.2 6.4 6.7 7.1 7.0 6.9 6.9 6.7 6.5 6.6 6.7 6.8 6.7 6.6 6.6 6.6 6.5 6.4 6.0 5.6 5.2 5.4 5.6 5.2 5.0 6.1 6.1 7.3 7.5 7.6 7.4 8.0 8.2 8.5 8.7
7.0 6.7 6.5 6.2 5.9 5.8 5.6 5.7 6.3 5.8 5.8 6.6 7.4 7.0 7.5 7.2 6.9 6.8 6.7 6.8 7.2 7.2 6.9 6.8 6.7 6.6 6.5 6.1 5.8 5.5 5.4 5.3 5.2 5.1 5.2 6.4 6.9 7.0 7.3 7.3 7.4 7.7 8.3 8.7 8.8
6.8 6.4 6.0 6.0 5.8 5.9 6.1 6.2 6.1 5.9 5.9 6.1 6.2 6.5 6.1 6.9 7.0 6.6 7.0 7.0 7.1 7.1 7.2 7.0 6.9 6.6 6.5 6.1 5.9 5.8 5.6 5.6 5.2 5.6 6.2 6.6 6.7 6.0 6.1 6.7 7.1 7.7 8.5 8.6 8.7
6.5 6.1 6.1 6.0 6.0 6.2 6.1 6.0 5.9 6.0 6.0 6.3 6.4 6.0 6.3 6.8 6.3 6.6 6.9 6.9 6.9 7.2 7.3 7.0 6.9 6.4 6.5 6.5 6.3 5.9 5.8 5.7 5.6 5.7 6.2 6.2 6.5 6.0 5.7 5.7 6.6 7.4 8.2 8.4 8.7
6.2 5.9 5.8 5.9 5.9 6.0 5.8 5.6 5.7 6.7 6.8 6.4 6.5 6.5 6.5 6.8 6.8 6.0 6.6 7.0 6.9 7.2 7.2 7.0 6.5 6.5 6.8 6.7 6.6 6.3 6.2 6.1 5.9 6.0 6.3 6.3 6.2 6.1 6.1 5.9 5.9 6.7 7.7 8.2 8.5
6.0 5.9 5.6 5.7 5.3 5.4 5.6 6.1 6.3 6.7 6.8 6.6 6.5 6.7 6.6 6.5 6.3 6.1 6.4 6.8 6.8 7.0 6.6 6.7 6.6 6.8 7.1 6.9 6.5 6.4 6.4 6.4 6.3 6.2 6.2 6.1 6.3 6.4 6.0 5.9 5.8 6.1 7.3 7.8 8.3
5.8 5.7 5.5 5.3 5.3 5.6 6.0 6.3 6.4 6.5 6.7 6.5 6.6 6.6 7.0 6.8 6.7 6.3 6.1 6.5 6.6 6.6 6.4 6.8 7.0 7.3 6.9 6.8 6.5 6.3 6.2 6.2 6.1 6.5 6.3 6.3 6.5 6.2 5.7 5.6 5.8 6.0 6.1 6.4 6.8
5.2 5.2 5.5 5.4 5.6 5.9 5.8 5.9 6.2 6.5 6.5 6.4 6.7 6.6 6.8 6.7 7.0 6.5 6.3 6.5 6.9 6.7 6.5 6.6 7.0 7.1 7.1 7.0 6.7 6.4 6.4 6.4 6.2 6.2 6.0 6.5 5.9 6.2 5.6 5.6 5.6 5.5 5.5 6.2 6.2
4.9 5.0 5.8 6.1 5.9 5.9 5.8 6.1 6.4 6.3 6.4 6.8 6.6 6.5 6.7 6.6 6.9 6.8 6.7 6.8 6.5 7.0 7.0 7.3 7.2 6.9 7.2 7.0 6.9 6.4 6.7 6.8 6.6 6.5 6.4 6.5 6.0 6.5 5.7 5.8 5.8 5.4 5.5 5.6 6.2
5.1 5.7 5.9 6.0 6.0 5.8 6.0 5.9 6.5 6.5 7.1 7.2 6.6 6.7 7.2 7.4 7.2 6.9 6.8 7.2 7.2 7.1 7.3 7.3 7.2 7.0 6.9 7.0 6.8 6.9 6.7 6.6 6.4 6.5 6.7 6.4 6.9 6.3 6.0 6.2 5.8 5.6 5.7 5.3 5.1
Wind_Speed
13 14 15 17 18 19 20 21 22 23 23 24 23 24 27 28 28 4 7 10 7 10 6 1 2 3 3 1 2 4 1 3 6 7 7 3 1 3 2 4 3 3 3 4 6
13 14 16 16 17 18 20 22 22 24 24 23 24 23 24 27 11 8 11 9 13 1 6 4 2 4 2 3 2 4 5 7 7 6 6 2 1 4 4 3 5 4 3 3 7
14 16 17 17 18 19 21 23 24 24 25 24 22 22 22 19 5 6 7 8 8 8 1 2 4 5 3 2 4 4 6 3 4 6 5 4 6 4 5 7 9 7 2 3 5
14 17 17 17 18 21 23 24 26 25 26 23 20 20 21 4 5 1 12 2 5 5 3 4 4 6 5 5 6 4 7 6 4 7 5 7 2 8 9 10 11 8 8 5 11
15 16 16 17 20 23 25 25 26 27 25 23 17 13 5 3 10 5 11 8 1 6 6 6 5 6 5 5 3 6 6 6 6 7 7 9 12 14 13 10 14 9 9 11 11
16 16 16 18 23 24 26 27 29 29 27 22 18 8 2 6 3 2 5 7 2 4 4 5 5 6 4 4 5 4 6 7 7 10 9 14 21 6 4 10 12 9 12 11 11
14 14 16 19 23 27 30 31 30 30 30 23 14 6 7 17 4 8 5 4 3 4 4 5 4 6 4 3 5 6 8 7 5 6 7 9 16 14 10 11 13 12 11 10 14
16 16 18 19 24 27 31 35 34 32 24 13 10 6 8 5 7 9 3 6 8 5 3 5 4 4 4 3 6 4 2 3 3 2 7 9 26 9 6 9 12 11 9 9 12
14 15 17 19 23 26 32 36 31 10 9 16 6 3 10 5 2 8 8 4 5 6 6 2 5 5 3 1 4 2 5 8 7 7 7 10 20 6 6 6 9 9 8 8 9
14 17 19 21 24 28 36 32 12 2 5 3 6 2 6 3 1 5 4 5 4 4 4 4 2 3 2 4 5 4 4 4 4 5 2 8 16 8 9 6 8 9 9 9 9
15 18 21 23 25 30 15 4 5 3 6 6 11 8 18 7 3 2 3 4 2 2 4 3 4 8 8 7 4 3 4 9 2 7 6 14 13 11 8 7 9 10 10 9 12
16 17 19 23 26 15 6 5 7 7 12 14 26 22 23 11 7 9 2 3 4 6 2 0 7 6 6 5 5 5 8 10 8 10 8 8 16 16 13 8 9 12 12 11 6
15 16 19 23 18 5 2 6 6 5 5 11 8 8 6 14 12 13 6 3 5 6 6 6 4 2 6 5 5 6 7 9 11 5 10 8 21 11 7 6 7 11 12 9 11
15 15 18 20 6 5 3 12 14 1 4 7 4 4 3 2 6 8 15 9 6 9 6 6 5 7 4 5 6 5 7 10 10 5 7 3 10 4 7 13 8 11 9 11 9
12 14 16 9 2 4 5 17 15 2 5 4 2 2 4 3 6 2 4 2 7 5 6 5 5 3 4 6 4 6 2 3 3 5 5 4 5 4 4 6 9 9 9 10 7
12 12 12 3 2 4 15 12 1 4 6 7 3 7 5 4 3 2 3 2 3 4 1 4 1 5 6 2 4 0 1 5 3 2 6 12 7 3 4 9 6 6 5 7 6
13 13 9 1 2 7 10 4 4 3 7 8 8 10 7 6 3 4 5 5 5 3 5 2 5 4 3 2 3 3 2 3 2 3 4 2 6 11 10 11 6 5 7 8 9
13 15 6 4 7 5 3 4 2 3 4 9 8 15 1 10 5 4 4 4 4 3 2 4 2 7 4 6 5 5 5 3 3 2 3 4 5 3 7 11 8 5 5 6 7
11 3 3 3 4 3 4 3 1 5 6 10 13 5 6 11 10 7 5 5 7 8 6 4 4 2 4 3 7 3 6 1 3 3 2 3 6 2 17 19 18 16 14 12 11
2 3 3 8 1 3 4 1 3 4 7 4 3 8 7 14 14 17 3 2 4 9 5 3 2 1 2 4 1 3 4 2 2 3 2 4 1 4 13 17 16 16 16 17 9
3 3 3 5 2 4 3 3 4 4 7 6 4 5 6 6 7 7 5 4 8 3 2 4 2 1 4 5 6 3 2 3 2 2 1 3 1 4 10 12 14 15 16 17 14
2 2 3 1 3 2 1 2 5 5 3 5 4 6 6 5 4 6 7 7 8 8 2 0 3 3 7 3 7 6 3 5 3 2 2 1 4 3 5 11 13 15 16 15 16
2 2 3 3 2 2 2 4 4 4 4 2 3 3 7 4 5 4 6 14 12 6 4 2 2 2 1 2 4 4 2 3 4 1 5 2 2 1 7 14 14 15 16 14 14
2 3 3 2 2 2 2 4 3 4 6 5 5 6 5 4 7 6 6 10 17 4 8 1 3 2 3 2 1 3 7 8 4 3 2 5 5 2 1 5 12 14 14 14 14
1 2 2 1 1 0 2 3 3 3 4 4 4 6 4 4 3 5 1 5 14 2 3 1 3 2 1 3 3 3 8 9 9 11 6 8 7 6 4 6 1 8 11 12 15
1 1 1 1 1 1 2 2 4 3 2 7 4 9 12 9 11 5 3 3 9 5 6 4 2 2 3 3 4 5 12 10 13 12 13 14 17 9 6 8 8 9 8 11 13
1 1 2 2 1 2 3 4 4 7 8 8 9 12 15 16 13 13 10 11 10 4 2 1 3 2 3 4 7 5 2 5 6 9 10 10 11 5 2 10 12 14 9 10 12
Wind_Direction
353 353 349 343 342 339 337 336 335 333 332 331 331 332 329 327 320 316 246 222 187 266 172 10 66 110 78 102 123 130 223 216 202 186 238 314 87 280 277 263 318 260 208 248 114
345 345 345 345 339 337 335 333 330 328 326 326 326 330 329 325 315 260 250 252 228 212 127 164 164 131 111 185 193 173 205 220 198 217 252 289 56 300 301 317 286 294 276 44 123
337 338 339 340 338 336 330 326 324 323 323 323 323 328 329 329 313 250 334 213 232 205 136 125 140 139 186 150 205 209 239 212 217 250 262 247 269 245 273 290 241 259 303 166 167
333 333 335 337 338 333 328 323 321 320 316 316 320 325 325 334 293 170 17 179 235 190 161 142 138 143 188 206 217 235 227 223 230 240 264 261 233 263 231 247 261 246 258 192 194
329 331 334 334 332 329 327 320 317 313 309 308 308 319 355 348 248 294 342 351 8 149 187 179 157 159 191 199 257 210 247 236 221 256 254 273 254 253 263 261 271 267 266 234 207
324 325 329 332 328 329 326 320 313 306 304 301 297 296 176 276 257 275 23 336 261 203 198 180 205 204 220 233 192 232 238 249 240 249 255 256 262 218 217 255 277 255 255 247 213
331 327 327 328 327 327 324 316 311 305 301 292 275 235 234 247 304 294 338 252 222 209 197 214 202 180 166 280 267 265 299 289 231 207 232 247 264 246 241 252 266 265 252 247 224
328 328 329 328 328 326 321 314 313 308 301 284 201 191 252 261 274 285 173 269 226 260 240 255 181 183 172 253 334 328 272 318 347 252 240 182 260 276 258 244 255 272 269 248 233
327 328 330 330 328 324 318 314 316 333 51 117 121 209 267 275 249 264 183 253 173 178 208 229 138 186 178 149 349 323 260 280 301 236 242 197 271 253 270 225 255 263 272 256 241
329 334 338 335 331 327 320 311 296 191 102 172 104 284 267 310 1 304 180 268 275 137 132 142 71 157 74 124 231 235 272 274 261 305 4 285 283 284 273 268 256 272 271 254 247
337 339 340 337 334 330 329 349 15 2 20 286 275 239 282 276 306 254 353 332 155 85 185 193 161 213 199 198 208 253 274 275 262 278 293 287 277 280 282 271 287 284 267 246 231
338 337 339 337 332 344 345 68 55 271 297 252 248 249 253 296 295 266 212 217 173 197 143 0 249 211 200 209 217 241 265 275 283 248 261 263 279 284 265 251 239 259 263 250 227
338 341 339 341 333 23 334 90 326 319 265 295 255 251 242 202 233 254 203 184 189 191 192 179 234 102 172 227 230 236 249 269 269 272 274 276 275 263 257 246 255 261 241 254 230
335 345 342 344 45 320 347 329 336 229 317 279 265 262 154 146 226 224 190 168 205 201 170 225 243 227 185 235 187 248 226 252 277 282 266 41 291 220 271 289 270 263 261 255 216
349 342 354 21 283 349 287 321 320 86 336 328 65 120 127 203 274 81 183 130 168 184 152 222 177 173 191 229 142 250 243 253 245 262 296 183 273 286 246 258 259 254 258 266 217
335 341 351 17 353 263 319 313 22 52 253 320 45 9 328 241 303 141 162 124 135 149 291 220 139 179 201 186 189 129 241 250 235 214 259 229 200 251 237 232 237 224 244 279 233
328 332 328 184 262 327 340 9 52 166 341 351 333 336 304 260 263 175 170 179 157 144 225 234 219 183 141 118 11 172 210 295 240 205 250 297 187 257 272 269 251 316 329 300 254
327 326 332 275 311 343 12 53 179 31 324 3 333 317 44 7 311 193 139 193 219 111 131 189 279 164 181 175 175 205 188 209 256 249 303 241 212 247 30 22 4 347 313 5 317
333 339 1 293 337 96 64 84 253 23 358 331 325 343 333 6 355 344 210 210 198 172 189 179 283 137 162 135 147 178 213 241 327 257 248 244 276 22 10 5 357 1 357 346 338
31 10 309 318 202 56 71 246 293 15 342 334 310 18 342 352 337 343 262 285 226 192 165 202 289 263 82 100 109 163 161 158 175 265 253 278 322 351 6 3 357 357 359 352 322
42 32 288 36 37 48 129 247 283 316 24 8 331 311 316 317 312 302 341 333 8 358 193 152 144 10 109 192 171 163 214 220 271 225 265 317 291 64 9 10 0 3 8 11 16
65 25 295 14 46 41 135 225 327 310 311 282 257 266 260 279 276 296 325 306 356 336 147 73 108 237 222 236 187 178 160 160 251 171 231 280 272 75 4 354 13 25 17 20 27
38 289 311 88 134 220 251 280 269 261 272 276 286 282 274 299 313 273 318 309 315 2 295 228 146 255 112 359 58 36 324 204 221 179 226 282 268 68 338 343 10 34 23 23 35
70 4 327 52 158 128 16 282 282 299 277 242 270 266 278 285 192 275 309 294 328 196 303 315 111 149 148 215 159 242 288 299 298 239 313 243 280 14 332 314 334 31 29 22 38
129 251 204 281 34 170 248 284 291 309 324 295 283 250 290 278 255 229 77 315 300 231 228 180 103 42 251 246 218 267 276 279 265 249 238 261 291 339 219 248 115 54 50 31 36
155 175 41 275 265 27 340 289 283 317 291 302 286 344 324 283 271 312 277 221 241 314 347 352 102 55 308 4 340 293 287 269 266 260 250 258 270 260 197 175 135 90 58 55 43
161 140 100 276 172 79 240 245 280 340 290 240 296 317 305 285 266 270 271 268 269 301 223 358 127 101 258 334 325 317 177 278 269 257 255 248 257 194 108 174 146 116 89 75 61